{"data":{"norad_id":68817,"intl_designator":"2026-089R","name":"STARLINK-37444","alt_names":[],"object_type":"PAYLOAD","status":"ACTIVE","operator":null,"country":"US","launch_date":"2026-04-23","launch_site_code":"AFWTR","launch_vehicle":null,"mission":null,"orbit_class":"UNKNOWN","rcs_meters":null,"size_class":null,"mass_kg":null,"dimensions":null,"purposes":["comms"],"wikipedia_slug":null,"has_3d_model":false,"image_url":null,"decayed_at":null,"tle_current":{"epoch":"2026-05-25T02:37:04.895616Z","epoch_age_seconds":65338,"freshness":"FRESH","line1":"1 68817U 26089R   26145.10908444  .00188158  00000+0  12351-2 0  9997","line2":"2 68817  97.2847 351.7676 0001812  80.4104 279.7366 15.75183896  5067","mean_motion":15.75183896,"eccentricity":0.0001812,"inclination_deg":97.2847,"raan_deg":351.7676,"arg_perigee_deg":80.4104,"mean_anomaly_deg":279.7366,"bstar":0.0012351,"rev_number":506,"period_min":91.417897532899,"perigee_km":342.88986410886,"apogee_km":345.32600567327,"semimajor_km":6722.2449348911,"source":"CELESTRAK","updated_at":"2026-05-25T13:38:22.043198Z"}}}